Regional Weather Roundup
Issued by NWS Kansas City/Pleasant Hill, MO

Home | Current Version | Previous Version | Text Only | Print | Product List | Glossary On
Versions: 1 2 3 4 5 6 7 8 9 10 11 12 13 14 15 16 17 18 19 20 21 22 23 24 25 26 27
000
ASUS43 KEAX 052010
RWREAX

WEATHER ROUNDUP FOR EASTERN KANSAS AND NORTHWEST MISSOURI
NATIONAL WEATHER SERVICE KANSAS CITY/PLEASANT HILL MO
200 PM CST MON DEC 05 2016

KSZ040-057-103>105-MOZ028-029-037-043-052100-
...KANSAS CITY METROPOLITAN AREA...

CITY           SKY/WX    TMP DP  RH WIND       PRES   REMARKS
K.C. INTL      MOSUNNY   51  33  50 S14       29.76F
K.C. DOWNTOWN  SUNNY     53  33  46 S16       29.78F
LEES SUMMIT    SUNNY     51  34  52 S20G25    29.78F
OLATHE - IXD   SUNNY     50  37  61 S14       29.77F
OLATHE - OJC   SUNNY     49  35  58 S17       29.77F
LAWRENCE       SUNNY     50  38  63 SE13G21   29.76F

$$

MOZ001>008-011>017-020>025-030>033-038>040-044>046-053-054-052100-
...NORTHERN AND CENTRAL MISSOURI...

CITY           SKY/WX    TMP DP  RH WIND       PRES   REMARKS
ST. JOSEPH     SUNNY     51  35  54 S17       29.76F
MOSBY          CLEAR     52  32  46 SE13G20   29.78F
WARRENSBURG    SUNNY     50  34  53 SE15      29.81F
WHITEMAN AFB   MOSUNNY   49  40  68 S10       29.81F
CLINTON        MOSUNNY   50  36  57 S13       29.83F
SEDALIA        SUNNY     51  33  50 S15       29.84F
WARSAW         NOT AVBL
CHILLICOTHE      N/A     50  34  54 S13       29.82F
KIRKSVILLE     PTSUNNY   38  37  97 SE13      29.86F WCI  30

$$

MOZ041-047>049-056>058-063>065-088>090-097-052100-
...EASTERN AND SOUTHERN MISSOURI...

CITY           SKY/WX    TMP DP  RH WIND       PRES   REMARKS
ST. LOUIS INTL CLOUDY    46  34  62 SE12      29.94F
SPIRIT OF STL  PTSUNNY   46  37  71 SE7       29.93F
COLUMBIA       CLOUDY    44  38  79 SE10      29.88F
JEFFERSON CITY MOSUNNY   44  38  79 E6        29.88F
ROLLA          MOSUNNY   47  38  71 SE9       29.86F
SPRINGFIELD    CLOUDY    44  36  73 SE13      29.81F
BRANSON        CLOUDY    45  37  76 SE9       29.84F
JOPLIN         MOSUNNY   47  37  68 E9        29.79F
WEST PLAINS    SUNNY     45  34  65 E7        29.87F

$$

IAZ060-094-KSZ022-034>040-054-083-096-NEZ052-066-093-052100-
...KANSAS...SOUTHEAST NEBRASKA AND IOWA...

CITY           SKY/WX    TMP DP  RH WIND       PRES   REMARKS
TOPEKA         SUNNY     51  38  60 S15       29.75F
MANHATTAN      SUNNY     56  32  40 S20G33    29.66F
EMPORIA        SUNNY     51  34  52 S20G26    29.71F
CHANUTE        SUNNY     52  38  58 SE14      29.74F
WICHITA        MOSUNNY   53  36  52 S21G31    29.66F
OMAHA          CLOUDY    49  36  61 S24       29.65F
LINCOLN        SUNNY     51  36  56 S21       29.65S
FALLS CITY     SUNNY     50  37  61 S18G25    29.71F
LAMONI         SUNNY     44  39  82 S12       29.78F
DES MOINES     PTSUNNY   49  34  56 S24       29.77F

$$





USA.gov is the U.S. government's official web portal to all federal, state and local government web resources and services.